TimeCDT,TemperatureF,Dew PointF,Humidity,Sea Level PressureIn,VisibilityMPH,Wind Direction,Wind SpeedMPH,Gust SpeedMPH,PrecipitationIn,Events,Conditions,WindDirDegrees,DateUTC
12:53 AM,75.0,72.0,90,30.01,8.0,Calm,Calm,-,N/A,,Clear,0,2013-08-01 05:53:00
1:53 AM,75.0,72.0,90,30.00,5.0,Calm,Calm,-,N/A,,Clear,0,2013-08-01 06:53:00
2:53 AM,75.0,72.0,90,29.99,6.0,Calm,Calm,-,N/A,,Mostly Cloudy,0,2013-08-01 07:53:00
3:53 AM,75.0,72.0,90,29.97,5.0,Calm,Calm,-,N/A,,Clear,0,2013-08-01 08:53:00
4:53 AM,73.9,72.0,93,29.99,4.0,Calm,Calm,-,N/A,,Partly Cloudy,0,2013-08-01 09:53:00
5:53 AM,75.0,72.0,90,30.00,6.0,South,3.5,-,N/A,,Overcast,170,2013-08-01 10:53:00
6:53 AM,75.0,73.0,94,30.01,5.0,Calm,Calm,-,N/A,,Overcast,0,2013-08-01 11:53:00
7:32 AM,75.2,73.4,94,30.03,5.0,Calm,Calm,-,N/A,Thunderstorm,Mostly Cloudy,0,2013-08-01 12:32:00
7:44 AM,75.2,73.4,94,30.03,4.0,NE,9.2,-,N/A,,Overcast,50,2013-08-01 12:44:00
7:53 AM,75.9,73.0,91,30.02,4.0,NE,4.6,-,N/A,,Overcast,50,2013-08-01 12:53:00
8:03 AM,77.0,73.4,89,30.03,5.0,ENE,6.9,-,N/A,,Overcast,70,2013-08-01 13:03:00
8:53 AM,79.0,75.0,88,30.02,7.0,SSE,4.6,-,N/A,,Mostly Cloudy,160,2013-08-01 13:53:00
8:59 AM,78.8,75.2,89,30.03,6.0,South,6.9,-,N/A,,Mostly Cloudy,170,2013-08-01 13:59:00
9:10 AM,78.8,75.2,89,30.03,7.0,SSE,4.6,-,N/A,,Overcast,160,2013-08-01 14:10:00
9:53 AM,80.1,75.0,85,30.02,7.0,Calm,Calm,-,N/A,,Overcast,0,2013-08-01 14:53:00
10:11 AM,82.4,75.2,79,30.02,7.0,South,3.5,-,N/A,,Overcast,190,2013-08-01 15:11:00
10:53 AM,84.9,77.0,77,30.00,8.0,WNW,3.5,-,N/A,,Mostly Cloudy,300,2013-08-01 15:53:00
11:53 AM,89.1,77.0,67,29.99,10.0,Variable,4.6,-,N/A,,Partly Cloudy,0,2013-08-01 16:53:00
12:53 PM,91.0,75.9,61,29.98,10.0,Variable,3.5,-,N/A,,Partly Cloudy,0,2013-08-01 17:53:00
1:53 PM,93.0,75.9,57,29.96,10.0,Variable,3.5,-,N/A,,Partly Cloudy,0,2013-08-01 18:53:00
2:53 PM,93.0,75.0,56,29.94,10.0,North,5.8,-,N/A,,Partly Cloudy,350,2013-08-01 19:53:00
3:53 PM,91.0,75.0,59,29.92,10.0,NNE,4.6,-,N/A,,Mostly Cloudy,30,2013-08-01 20:53:00
4:53 PM,84.0,73.9,72,29.95,10.0,SSE,10.4,-,N/A,,Mostly Cloudy,150,2013-08-01 21:53:00
5:32 PM,82.4,73.4,74,29.95,10.0,SSW,5.8,-,N/A,Thunderstorm,Mostly Cloudy,210,2013-08-01 22:32:00
5:53 PM,82.0,75.0,79,29.96,10.0,Calm,Calm,-,N/A,Thunderstorm,Partly Cloudy,0,2013-08-01 22:53:00
6:10 PM,82.4,75.2,79,29.96,10.0,SW,5.8,-,N/A,,Clear,230,2013-08-01 23:10:00
6:53 PM,82.9,73.0,72,29.95,10.0,Calm,Calm,-,N/A,,Partly Cloudy,0,2013-08-01 23:53:00
7:53 PM,79.0,75.0,88,29.96,10.0,Calm,Calm,-,N/A,,Clear,0,2013-08-02 00:53:00
8:53 PM,77.0,73.9,90,29.96,10.0,Calm,Calm,-,N/A,,Clear,0,2013-08-02 01:53:00
9:53 PM,75.9,73.9,94,29.99,8.0,Calm,Calm,-,N/A,,Partly Cloudy,0,2013-08-02 02:53:00
10:53 PM,73.9,73.0,97,29.99,6.0,Calm,Calm,-,N/A,,Clear,0,2013-08-02 03:53:00
11:53 PM,75.0,72.0,90,29.98,5.0,Calm,Calm,-,N/A,,Clear,0,2013-08-02 04:53:00